Weather History for Dover AFB, DE

Change the Weather History Date:

Tuesday, November 27, 2012

  Actual Average Record
Temperature  
Mean Temperature 42 °F -  
Max Temperature 46 °F 57 °F 70 °F (1959)
Min Temperature 37 °F 37 °F 20 °F (1974)
Degree Days  
Heating Degree Days 24    
Moisture  
Dew Point 40 °F    
Average Humidity 95    
Maximum Humidity 100    
Minimum Humidity 81    
Precipitation  
Precipitation 0.23 in - - ()
Sea Level Pressure  
Sea Level Pressure 30.19 in    
Wind  
Wind Speed 8 mph (NNE)    
Max Wind Speed 15 mph    
Max Gust Speed 20 mph    
Visibility 8 miles    
Events Rain    
Averages and records for this station are not official NWS values.
T = Trace of Precipitation, MM = Missing Value Source: NWS Daily Summary

Daily Weather History Graph

Daily Weather History Graph

Search for Another Location

Airport:

Trip Planner

Search our weather history database for the weather conditions in past years. The results will help you decide how hot, cold, wet, or windy it might be!

Date:

Astronomy

Nov. 27, 2012 Rise Set
Actual Time 6:58 AM EST 4:40 PM EST
Civil Twilight 6:29 AM EST 5:09 PM EST
Nautical Twilight 5:56 AM EST 5:42 PM EST
Astronomical Twilight 5:24 AM EST 6:15 PM EST
Moon 4:10 PM EST (11/27) 6:01 AM EST (11/27)
Length of Visible Light 10h 40m
Length of Day
9h 42m
Waxing Gibbous, 99% of the Moon is Illuminated
Nov 27
Waxing Gibbous
Nov 28
Full
Dec 6
Last Quarter
Dec 13
New
Dec 20
First Quarter

Hourly Weather History & Observations

Time (EST) Temp. Windchill Dew Point Humidity Pressure Visibility Wind Dir Wind Speed Gust Speed Precip Events Conditions
12:55 AM 40.8 °F - 36.9 °F 86% 30.22 in 10.0 mi Calm Calm - N/A   Overcast
1:55 AM 39.9 °F 36.7 °F 39.2 °F 97% 30.23 in 10.0 mi ENE 4.6 mph - N/A   Mostly Cloudy
2:55 AM 42.8 °F 38.0 °F 41.4 °F 95% 30.22 in 10.0 mi East 8.1 mph - N/A   Mostly Cloudy
3:55 AM 43.5 °F 38.9 °F 39.4 °F 85% 30.21 in 10.0 mi East 8.1 mph - N/A   Partly Cloudy
4:19 AM 44.6 °F 41.4 °F 39.2 °F 81% 30.22 in 10.0 mi East 5.8 mph - N/A Rain Light Rain
4:55 AM 43.7 °F 39.1 °F 40.5 °F 88% 30.20 in 10.0 mi East 8.1 mph - 0.00 in Rain Light Rain
5:17 AM 44.6 °F 40.7 °F 41.0 °F 87% 30.20 in 8.0 mi ENE 6.9 mph - N/A Rain Light Rain
5:34 AM 42.8 °F 40.1 °F 41.0 °F 93% 30.21 in 9.0 mi NE 4.6 mph - N/A Rain Light Rain
5:55 AM 43.3 °F 41.7 °F 41.7 °F 94% 30.22 in 10.0 mi NE 3.5 mph - 0.02 in Rain Light Rain
6:11 AM 42.8 °F 40.1 °F 41.0 °F 93% 30.23 in 9.0 mi NE 4.6 mph - N/A Rain Light Rain
6:21 AM 42.8 °F 39.3 °F 41.0 °F 93% 30.22 in 9.0 mi NE 5.8 mph - N/A Rain Light Rain
6:29 AM 42.8 °F 37.5 °F 41.0 °F 93% 30.22 in 10.0 mi ENE 9.2 mph - N/A   Mostly Cloudy
6:55 AM 43.0 °F 38.8 °F 40.6 °F 91% 30.21 in 10.0 mi ENE 6.9 mph - 0.00 in   Mostly Cloudy
7:21 AM 42.8 °F 37.0 °F 41.0 °F 93% 30.20 in 10.0 mi ENE 10.4 mph - N/A Rain Light Rain
7:55 AM 43.5 °F 38.3 °F 41.0 °F 91% 30.20 in 5.0 mi East 9.2 mph - 0.01 in Rain Light Rain
8:44 AM 44.6 °F 38.8 °F 41.0 °F 87% 30.20 in 4.0 mi ESE 11.5 mph - N/A Rain Light Rain
8:55 AM 44.2 °F 39.2 °F 41.4 °F 90% 30.20 in 6.0 mi SE 9.2 mph 19.6 mph 0.05 in Rain Light Rain
9:36 AM 44.6 °F 39.2 °F 42.8 °F 93% 30.20 in 10.0 mi ESE 10.4 mph - N/A   Overcast
9:45 AM 44.6 °F 41.4 °F 42.8 °F 93% 30.21 in 10.0 mi ESE 5.8 mph - N/A Rain Light Rain
9:55 AM 45.3 °F 41.6 °F 43.0 °F 92% 30.20 in 9.0 mi ESE 6.9 mph - 0.01 in Rain Light Rain
10:16 AM 46.4 °F 42.9 °F 42.8 °F 87% 30.19 in 10.0 mi East 6.9 mph - N/A   Overcast
10:30 AM 46.4 °F 41.9 °F 44.6 °F 93% 30.17 in 10.0 mi ENE 9.2 mph - N/A   Overcast
10:38 AM 46.4 °F 42.9 °F 44.6 °F 93% 30.17 in 10.0 mi ENE 6.9 mph - N/A Rain Light Rain
10:55 AM 46.0 °F 41.4 °F 45.5 °F 98% 30.17 in 7.0 mi NNE 9.2 mph - 0.01 in Rain Light Rain
11:13 AM 44.6 °F 39.2 °F 44.6 °F 100% 30.17 in 6.0 mi North 10.4 mph - N/A Rain Light Rain
11:21 AM 44.6 °F 39.2 °F 44.6 °F 100% 30.17 in 5.0 mi North 10.4 mph - N/A Rain Light Rain
11:55 AM 42.3 °F 34.8 °F 42.1 °F 99% 30.16 in 3.0 mi NNW 15.0 mph - 0.03 in Rain Light Rain
11:57 AM 42.8 °F 36.2 °F 42.8 °F 100% 30.17 in 4.0 mi NNW 12.7 mph - N/A Rain Light Rain
11:58 AM 42.8 °F 36.2 °F 41.0 °F 93% 30.17 in 4.0 mi NNW 12.7 mph - N/A Rain Light Rain
11:59 AM 42.8 °F 36.2 °F 41.0 °F 93% 30.17 in 4.0 mi NNW 12.7 mph - N/A Rain Light Rain
12:02 PM 42.8 °F 35.8 °F 41.0 °F 93% 30.17 in 4.0 mi North 13.8 mph - N/A Rain Light Rain
12:55 PM 41.5 °F 34.2 °F 41.4 °F 99% 30.14 in 5.0 mi North 13.8 mph - 0.04 in Rain Light Rain
1:48 PM 41.0 °F 34.3 °F 41.0 °F 100% 30.14 in 5.0 mi North 11.5 mph - N/A Rain Light Rain
1:55 PM 41.2 °F 33.7 °F 41.0 °F 99% 30.14 in 5.0 mi North 13.8 mph - 0.02 in Rain Light Rain
2:55 PM 41.0 °F 33.1 °F 40.8 °F 99% 30.14 in 6.0 mi North 15.0 mph - 0.03 in Rain Light Rain
3:40 PM 39.2 °F 31.6 °F 39.2 °F 100% 30.14 in 7.0 mi NNW 12.7 mph - N/A Rain Light Rain
3:55 PM 39.4 °F 31.8 °F 39.2 °F 99% 30.15 in 10.0 mi NNW 12.7 mph - 0.01 in Rain Light Rain
4:01 PM 39.2 °F 32.0 °F 39.2 °F 100% 30.15 in 10.0 mi NNW 11.5 mph - N/A   Overcast
4:55 PM 38.5 °F 30.3 °F 38.3 °F 99% 30.16 in 8.0 mi NNW 13.8 mph - 0.00 in   Overcast
5:30 PM 39.2 °F 32.5 °F 37.4 °F 93% 30.17 in 10.0 mi North 10.4 mph - N/A   Overcast
5:55 PM 38.3 °F 31.4 °F 38.1 °F 99% 30.17 in 10.0 mi North 10.4 mph - N/A   Overcast
6:15 PM 39.2 °F 32.5 °F 37.4 °F 93% 30.18 in 10.0 mi North 10.4 mph - N/A   Overcast
6:55 PM 38.7 °F 31.4 °F 38.5 °F 99% 30.20 in 10.0 mi NNW 11.5 mph - N/A   Overcast
7:01 PM 39.2 °F 33.0 °F 39.2 °F 100% 30.20 in 10.0 mi NNW 9.2 mph - N/A   Overcast
7:55 PM 37.8 °F 29.8 °F 37.6 °F 99% 30.21 in 10.0 mi NW 12.7 mph - N/A   Overcast
8:12 PM 37.4 °F 29.8 °F 37.4 °F 100% 30.21 in 10.0 mi NW 11.5 mph - N/A   Overcast
8:55 PM 37.6 °F 31.0 °F 37.2 °F 99% 30.22 in 10.0 mi NNW 9.2 mph - N/A   Overcast
9:55 PM 37.6 °F 31.6 °F 37.0 °F 98% 30.21 in 10.0 mi NNW 8.1 mph - N/A   Overcast
10:17 PM 37.4 °F 30.3 °F 37.4 °F 100% 30.22 in 10.0 mi NNW 10.4 mph - N/A   Overcast
10:21 PM 37.4 °F 30.8 °F 37.4 °F 100% 30.22 in 10.0 mi NNW 9.2 mph - N/A   Overcast
10:27 PM 37.4 °F 29.3 °F 37.4 °F 100% 30.22 in 10.0 mi NNW 12.7 mph - N/A   Overcast
10:49 PM 37.4 °F 28.9 °F 37.4 °F 100% 30.22 in 10.0 mi NNW 13.8 mph - N/A   Overcast
10:55 PM 38.1 °F 30.2 °F 36.9 °F 95% 30.23 in 10.0 mi NNW 12.7 mph - N/A   Overcast
11:36 PM 39.2 °F 32.5 °F 35.6 °F 87% 30.23 in 10.0 mi North 10.4 mph - N/A   Overcast
11:55 PM 38.1 °F 31.7 °F 36.3 °F 93% 30.22 in 10.0 mi NNW 9.2 mph - N/A   Overcast